GFSFLT2_850_thetae_063.txt.gz
Theta_e
310 309 308 306 305 304 303 303 303 302 302 302 302 303 303 305 306 307 308 307 308 309 309 309 308 307 307
308 307 305 304 303 303 303 303 302 302 301 301 301 301 301 302 303 304 305 305 306 307 307 307 306 305 304
305 303 302 303 302 302 302 302 301 300 300 300 300 300 301 301 301 302 302 302 303 303 302 302 302 302 301
301 300 300 301 301 300 299 299 298 295 293 291 291 292 294 297 298 299 299 300 300 300 300 300 300 300 300
300 298 297 297 296 296 294 291 290 290 289 289 289 289 289 289 289 289 289 290 291 292 293 295 297 298 299
299 296 294 293 293 291 289 288 288 289 288 288 288 288 288 288 287 287 287 288 288 288 288 288 288 288 288
290 290 290 290 289 288 288 287 287 287 287 287 287 288 288 289 289 289 289 289 289 288 288 288 288 287 287
288 288 288 288 287 287 287 287 287 287 287 288 288 289 289 289 290 290 290 290 289 289 290 290 290 290 289
288 287 287 286 286 286 286 286 285 287 288 289 289 289 290 290 290 290 290 289 290 290 290 290 290 290 290
287 287 286 286 286 286 285 285 286 288 289 289 289 289 289 289 289 289 289 289 289 289 290 289 290 290 290
287 287 286 286 286 286 286 287 288 288 288 288 288 288 288 289 288 288 288 289 289 289 289 289 289 289 290
286 286 286 286 286 286 287 287 288 288 288 288 288 288 288 288 288 288 288 287 287 288 288 289 289 289 289
286 286 286 286 286 287 287 287 288 288 287 287 287 287 287 287 287 288 288 288 288 288 288 288 289 289 289
286 285 286 286 285 286 286 287 286 286 286 286 285 285 286 286 286 287 286 286 287 287 287 288 288 288 288
286 285 285 284 284 284 285 285 285 285 285 284 284 284 285 285 286 287 287 287 287 287 287 287 287 288 288
286 285 285 284 284 284 284 284 285 284 284 283 283 284 285 287 286 286 286 286 286 286 285 285 286 286 286
285 285 284 284 284 284 284 284 284 284 284 283 284 284 285 285 287 285 285 285 284 285 284 284 284 286 285

GFSFLT2_850_thetae_066.txt.gz
Theta_e
312 310 308 308 307 306 304 304 304 303 302 302 302 303 304 305 306 307 307 308 309 310 310 309 310 311 310
308 308 307 306 305 303 303 303 302 301 300 301 301 301 302 303 303 304 306 307 308 308 308 308 308 310 309
306 305 304 303 302 302 302 302 301 301 300 299 299 299 300 301 301 302 303 304 304 304 305 306 306 307 306
304 303 301 300 301 300 300 299 299 297 294 292 291 291 293 295 298 299 300 301 301 301 302 302 302 302 301
301 299 299 299 298 298 296 294 291 290 289 289 289 289 289 289 289 289 290 291 293 296 297 297 298 300 300
299 299 297 295 294 293 291 289 288 288 288 288 288 288 288 288 288 288 288 288 288 288 288 288 288 288 288
294 293 292 292 291 290 289 288 288 288 287 288 287 288 288 289 289 289 289 289 289 289 289 289 289 288 288
289 289 289 289 288 288 288 288 287 287 287 288 288 289 289 289 290 290 290 290 290 290 290 290 290 290 290
288 287 287 287 287 287 287 287 287 287 288 289 289 289 290 290 290 290 290 290 290 290 290 290 290 290 290
287 287 287 287 287 287 287 286 286 287 288 289 289 289 289 289 290 289 289 289 289 289 289 289 290 290 290
287 286 286 286 286 286 286 286 287 288 288 288 289 288 288 288 288 288 288 288 289 288 289 289 289 289 290
286 286 286 286 286 286 286 287 287 288 288 288 288 288 288 288 288 288 288 288 288 288 288 288 289 289 289
286 286 286 286 286 286 287 287 287 288 288 288 288 287 287 287 287 288 288 287 287 288 288 288 289 289 289
286 286 285 285 286 286 286 286 287 287 287 286 286 286 287 287 287 288 287 286 286 286 287 288 288 288 288
286 286 285 285 285 285 285 285 285 285 284 284 285 285 285 286 287 287 287 287 287 286 286 287 287 287 287
287 286 285 284 284 284 284 284 284 284 284 283 283 284 285 286 287 288 287 287 285 285 285 284 286 286 285
286 286 285 285 284 284 284 284 284 283 283 283 283 283 284 286 288 287 287 286 285 284 284 284 285 287 287

GFSFLT2_850_thetae_069.txt.gz
Theta_e
313 313 312 310 309 307 307 305 304 303 302 302 302 303 304 305 306 306 306 307 310 312 313 313 312 313 313
312 311 309 307 306 305 305 303 303 302 302 301 300 301 302 303 303 304 306 306 306 307 308 309 309 309 309
308 307 306 305 305 304 303 302 302 301 300 300 299 299 299 300 301 302 303 304 305 306 306 307 307 306 307
305 305 304 303 301 301 301 301 300 299 298 295 292 291 291 294 297 299 301 302 303 304 304 304 305 305 305
302 301 301 300 300 299 299 299 297 294 291 290 289 290 290 290 290 290 291 295 298 299 300 300 301 301 301
300 300 299 298 296 295 294 292 289 289 289 289 289 289 289 288 288 288 288 289 289 289 289 289 290 290 290
299 298 297 295 294 293 291 289 288 288 288 288 288 288 288 289 289 289 289 289 289 289 289 289 289 289 289
290 291 291 291 290 289 288 288 287 288 288 287 288 289 289 290 290 290 290 290 290 290 290 290 290 290 290
288 289 288 288 288 287 287 287 287 287 287 288 288 289 290 290 290 290 290 290 290 290 290 290 290 290 290
288 288 287 287 286 286 286 286 286 286 287 288 289 289 289 290 290 290 290 289 290 290 290 290 290 290 290
287 287 287 287 286 286 286 286 286 287 288 289 289 289 289 289 289 289 289 289 289 289 289 289 289 290 290
287 287 287 286 286 286 286 286 287 288 288 288 288 288 288 288 288 288 288 288 288 288 289 288 288 289 289
287 287 286 286 286 286 286 287 287 288 288 288 288 288 288 288 288 288 288 287 287 288 288 288 289 288 289
287 287 287 286 286 286 286 286 287 287 287 287 287 287 287 287 287 287 287 287 286 286 287 288 288 287 288
287 287 287 286 286 286 286 285 285 285 285 286 285 286 286 286 287 287 287 287 287 287 286 287 287 286 286
287 287 287 286 285 285 285 284 284 284 284 284 284 284 285 286 286 287 288 288 287 286 285 285 287 286 286
287 286 287 286 286 285 285 284 284 284 283 283 284 284 284 285 286 287 288 287 286 286 285 284 285 287 286

GFSFLT2_850_thetae_072.txt.gz
Theta_e
313 314 313 313 312 310 309 307 306 305 303 303 302 303 304 304 305 305 306 307 309 311 314 315 315 316 314
311 311 310 311 310 308 305 305 304 303 302 302 301 301 301 303 303 303 304 305 306 310 311 312 312 311 311
308 309 308 307 306 304 304 303 301 301 301 300 300 299 299 299 300 302 303 304 305 305 307 308 309 309 309
306 306 305 305 304 303 301 300 300 300 300 299 298 295 293 293 296 298 300 302 303 303 303 305 305 306 306
303 303 303 303 302 300 300 299 299 298 297 293 290 290 290 290 290 290 292 296 299 301 302 303 303 304 304
301 300 300 300 299 298 296 297 295 292 290 289 289 289 288 288 288 288 289 289 290 290 291 293 296 298 299
299 298 298 297 297 295 294 293 291 289 289 288 288 288 288 288 288 288 289 289 289 289 289 289 289 289 289
295 296 295 294 293 292 291 290 288 288 288 287 288 288 288 289 289 289 290 290 290 290 290 290 290 291 291
289 289 289 290 289 289 289 288 287 287 287 287 287 288 289 289 289 289 290 290 290 290 290 291 291 291 291
288 287 287 287 287 287 287 287 287 286 287 287 288 288 289 289 289 290 290 290 290 290 290 290 290 290 290
288 288 287 287 287 287 287 287 287 287 288 288 289 289 289 289 289 290 290 289 289 289 289 290 290 290 290
287 287 287 287 287 287 287 287 287 287 288 288 288 288 288 288 288 289 289 289 289 289 289 289 289 289 289
287 287 287 287 287 288 287 287 287 287 288 288 288 288 288 288 288 288 288 288 288 288 288 288 288 288 289
287 287 287 286 287 286 287 287 287 287 287 288 288 288 288 288 287 287 287 287 287 287 288 288 288 288 288
287 287 287 287 287 286 286 287 286 286 286 286 286 286 286 286 286 286 286 286 286 287 288 288 288 287 287
288 288 289 288 286 286 286 286 285 285 285 284 284 285 285 285 286 286 286 286 287 287 287 287 288 287 286
289 289 288 286 286 286 285 285 285 284 284 283 283 284 284 284 284 286 286 287 287 286 286 286 288 288 286